McConnell AFB, KS

8:19 AM CDT on July 18, 2019 (GMT -0500)
McConnell Air Force Base

Weather History for KIAB - May, 2019

Change the Weather History Date:

Friday, May 3, 2019

  Actual Average Record
Temperature  
Mean Temperature 56 °F -  
Max Temperature 60 °F 72 °F 91 °F (2014)
Min Temperature 52 °F 51 °F 36 °F (2013)
Degree Days  
Heating Degree Days 10    
Growing Degree Days 6 (Base 50)    
Moisture  
Dew Point 53 °F    
Average Humidity 91    
Maximum Humidity 100    
Minimum Humidity 80    
Precipitation  
Precipitation 0.12 in - - ()
Sea Level Pressure  
Sea Level Pressure 30.00 in    
Wind  
Wind Speed 5 mph (NE)    
Max Wind Speed 14 mph    
Max Gust Speed -    
Visibility 10 miles    
Events Rain    
Averages and records for this station are not official NWS values.
T = Trace of Precipitation, MM = Missing Value Source: NWS Daily Summary

Daily Weather History Graph

Daily Weather History Graph

Search for Another Location

Airport or City:

Astronomy

May. 03, 2019 Rise Set
Actual Time 6:31 AM CDT 8:20 PM CDT
Civil Twilight 6:03 AM CDT 8:49 PM CDT
Nautical Twilight 5:29 AM CDT 9:23 PM CDT
Astronomical Twilight 4:52 AM CDT 10:00 PM CDT
Moon 6:10 AM CDT (5/3) 7:12 PM CDT (5/3)
Length of Visible Light 14h 46m
Length of Day
13h 49m
Waning Crescent, 2% of the Moon is Illuminated
May 3
Waning Crescent
May 4
New
May 11
First Quarter
May 18
Full
May 26
Last Quarter

Hourly Weather History & Observations

Time (CDT) Temp. Dew Point Humidity Pressure Visibility Wind Dir Wind Speed Gust Speed Precip Events Conditions
12:56 AM 55.6 °F 52.2 °F 88% 30.05 in 10.0 mi East 5.8 mph - N/A   Mostly Cloudy
1:56 AM 54.9 °F 51.4 °F 88% 30.02 in 10.0 mi East 5.8 mph - N/A   Overcast
2:56 AM 54.3 °F 50.9 °F 88% 30.01 in 10.0 mi East 3.5 mph - N/A   Overcast
3:56 AM 53.6 °F 51.1 °F 91% 30.02 in 10.0 mi NE 4.6 mph - N/A   Overcast
4:56 AM 53.6 °F 50.4 °F 89% 30.00 in 10.0 mi SE 4.6 mph - N/A   Overcast
5:09 AM 53.6 °F 50.0 °F 88% 30.00 in 10.0 mi SE 3.5 mph - N/A   Overcast
5:33 AM 53.6 °F 50.0 °F 88% 30.00 in 10.0 mi Calm Calm - N/A   Overcast
5:43 AM 53.6 °F 50.0 °F 88% 30.00 in 10.0 mi Calm Calm - N/A   Overcast
5:56 AM 53.8 °F 50.9 °F 90% 30.00 in 10.0 mi Calm Calm - N/A   Overcast
6:33 AM 53.6 °F 51.8 °F 94% 30.00 in 10.0 mi Calm Calm - N/A   Overcast
6:56 AM 53.8 °F 51.4 °F 92% 30.00 in 10.0 mi Calm Calm - N/A   Overcast
6:59 AM 53.6 °F 51.8 °F 94% 30.00 in 10.0 mi Calm Calm - N/A   Overcast
7:56 AM 54.7 °F 52.2 °F 91% 30.01 in 10.0 mi ENE 6.9 mph - N/A   Overcast
8:17 AM 55.4 °F 51.8 °F 88% 30.02 in 10.0 mi NE 6.9 mph - N/A   Overcast
8:26 AM 55.4 °F 51.8 °F 88% 30.02 in 10.0 mi NNE 5.8 mph - N/A   Overcast
8:40 AM 55.4 °F 51.8 °F 88% 30.02 in 10.0 mi North 8.1 mph - N/A   Overcast
8:56 AM 54.7 °F 52.7 °F 93% 30.01 in 10.0 mi North 9.2 mph - N/A   Overcast
9:01 AM 55.4 °F 53.6 °F 94% 30.01 in 10.0 mi North 10.4 mph - N/A Rain Light Rain
9:04 AM 55.4 °F 53.6 °F 94% 30.01 in 10.0 mi North 10.4 mph - N/A Rain Light Rain
9:15 AM 55.4 °F 53.6 °F 94% 30.00 in 10.0 mi NNE 9.2 mph - N/A Rain Light Rain
9:18 AM 55.4 °F 53.6 °F 94% 30.00 in 10.0 mi NNE 9.2 mph - N/A   Overcast
9:56 AM 55.2 °F 54.1 °F 96% 30.00 in 10.0 mi NE 6.9 mph - 0.00 in   Overcast
9:57 AM 55.4 °F 53.6 °F 94% 30.00 in 10.0 mi NE 6.9 mph - N/A   Overcast
10:27 AM 55.4 °F 53.6 °F 94% 30.02 in 10.0 mi ENE 5.8 mph - N/A   Light Drizzle
10:38 AM 55.4 °F 53.6 °F 94% 30.03 in 9.0 mi NE 3.5 mph - N/A Rain Light Rain
10:56 AM 54.9 °F 54.5 °F 99% 30.02 in 4.0 mi ESE 4.6 mph - 0.04 in Rain Light Rain
11:14 AM 55.4 °F 55.4 °F 100% 29.99 in 5.0 mi SE 10.4 mph - N/A Rain Light Rain
11:22 AM 55.4 °F 55.4 °F 100% 29.99 in 5.0 mi ESE 13.8 mph - N/A Rain Light Rain
11:30 AM 55.4 °F 55.4 °F 100% 30.03 in 6.0 mi NNW 10.4 mph - N/A Rain Light Rain
11:39 AM 55.4 °F 55.4 °F 100% 30.02 in 10.0 mi NE 4.6 mph - N/A   Mostly Cloudy
11:53 AM 55.4 °F 55.4 °F 100% 30.04 in 10.0 mi North 6.9 mph - N/A   Light Drizzle
11:56 AM 55.2 °F 54.9 °F 99% 30.04 in 10.0 mi North 6.9 mph - 0.07 in Rain Light Rain
12:04 PM 55.4 °F 55.4 °F 100% 30.03 in 10.0 mi NE 5.8 mph - N/A Rain Light Rain
12:28 PM 55.4 °F 55.4 °F 100% 30.04 in 10.0 mi NNE 6.9 mph - N/A Rain Light Rain
12:52 PM 55.4 °F 55.4 °F 100% 30.04 in 10.0 mi NNE 8.1 mph - N/A   Overcast
12:56 PM 55.6 °F 55.2 °F 99% 30.04 in 10.0 mi North 8.1 mph - 0.01 in   Overcast
1:36 PM 55.4 °F 55.4 °F 100% 30.01 in 10.0 mi NE 12.7 mph - N/A   Overcast
1:56 PM 56.3 °F 55.9 °F 99% 29.99 in 10.0 mi ENE 9.2 mph - N/A   Overcast
1:57 PM 57.2 °F 55.4 °F 94% 29.99 in 10.0 mi East 8.1 mph - N/A   Overcast
2:28 PM 57.2 °F 55.4 °F 94% 29.99 in 10.0 mi ENE 10.4 mph - N/A   Overcast
2:47 PM 59.0 °F 55.4 °F 88% 29.97 in 10.0 mi NNE 8.1 mph - N/A   Overcast
2:56 PM 58.6 °F 55.4 °F 89% 29.97 in 10.0 mi ENE 8.1 mph - N/A   Overcast
3:03 PM 59.0 °F 55.4 °F 88% 29.96 in 10.0 mi NE 9.2 mph - N/A   Overcast
3:44 PM 59.0 °F 53.6 °F 82% 29.96 in 10.0 mi NNE 6.9 mph - N/A   Overcast
3:56 PM 59.7 °F 54.1 °F 82% 29.95 in 10.0 mi NNE 5.8 mph - N/A   Overcast
3:59 PM 59.0 °F 53.6 °F 82% 29.95 in 10.0 mi NNE 6.9 mph - N/A   Overcast
4:56 PM 59.5 °F 53.8 °F 81% 29.97 in 10.0 mi North 4.6 mph - N/A   Overcast
4:58 PM 59.0 °F 53.6 °F 82% 29.97 in 10.0 mi NNE 5.8 mph - N/A   Overcast
5:56 PM 59.9 °F 54.0 °F 81% 29.98 in 10.0 mi ESE 4.6 mph - N/A   Overcast
6:24 PM 59.0 °F 53.6 °F 82% 29.98 in 10.0 mi Calm Calm - N/A   Overcast
6:30 PM 59.0 °F 53.6 °F 82% 29.97 in 10.0 mi Calm Calm - N/A   Overcast
6:32 PM 59.0 °F 53.6 °F 82% 29.97 in 10.0 mi Calm Calm - N/A   Overcast
6:43 PM 59.0 °F 53.6 °F 82% 29.97 in 10.0 mi Calm Calm - N/A   Overcast
6:52 PM 59.0 °F 53.6 °F 82% 29.97 in 10.0 mi East 3.5 mph - N/A   Overcast
6:54 PM 59.0 °F 53.6 °F 82% 29.97 in 10.0 mi East 3.5 mph - N/A   Overcast
6:56 PM 59.2 °F 53.6 °F 82% 29.97 in 10.0 mi East 3.5 mph - N/A   Overcast
7:05 PM 59.0 °F 53.6 °F 82% 29.97 in 10.0 mi Calm Calm - N/A   Overcast
7:41 PM 59.0 °F 53.6 °F 82% 29.97 in 10.0 mi East 3.5 mph - N/A   Overcast
7:56 PM 59.0 °F 52.9 °F 80% 29.97 in 10.0 mi Calm Calm - N/A   Overcast
8:52 PM 57.2 °F 53.6 °F 88% 29.96 in 10.0 mi NE 5.8 mph - N/A   Mostly Cloudy
8:56 PM 56.7 °F 53.1 °F 88% 29.96 in 10.0 mi NE 4.6 mph - N/A   Mostly Cloudy
8:58 PM 57.2 °F 53.6 °F 88% 29.96 in 10.0 mi NE 4.6 mph - N/A   Mostly Cloudy
9:56 PM 53.8 °F 51.3 °F 91% 29.98 in 10.0 mi NNE 3.5 mph - N/A   Overcast
10:56 PM 52.9 °F 52.5 °F 99% 29.99 in 10.0 mi NNE 4.6 mph - N/A   Overcast
11:56 PM 52.0 °F 51.6 °F 99% 29.98 in 10.0 mi NNE 6.9 mph - N/A   Clear